Regional Weather Roundup
Issued by NWS State College, PA

Home | Current Version | Previous Version | Text Only | Print | Product List | Glossary Off
Versions: 1 2 3 4 5 6 7 8 9 10 11 12 13 14 15 16 17 18 19 20 21 22 23 24 25 26 27 28 29 30 31 32 33 34 35 36 37 38 39 40 41 42 43 44 45 46 47 48 49 50

000
ASUS41 KCTP 200603
RWRCTP

REGIONAL WEATHER ROUNDUP
NATIONAL WEATHER SERVICE STATE COLLEGE PA
100 AM EST SAT DEC 20 2014

Note: "fair" indicates few or no clouds below 12,000 feet with no
significant weather and/or obstructions to visibility.

* = STATION THAT DOES NOT REPORT PRECIPITATION /E.G. RAIN...SNOW...ETC/
    THUNDER OR FOG.

PAZ002>004-007>009-013>016-020>023-029>032-200700-
WESTERN PENNSYLVANIA

CITY           SKY/WX    TMP DP  RH WIND       PRES   REMARKS
ERIE           CLOUDY    30  21  69 N7        30.24F
MEADVILLE      CLOUDY    27  19  72 N6        30.20F
FRANKLIN*      CLOUDY    25  18  74 NW5       30.21F
NEW CASTLE       N/A     26  19  74 CALM      30.26F
BEAVER COUNTY  NOT AVBL
BUTLER*        CLOUDY    27  19  74 CALM      30.25S
PITTSBURGH INT CLOUDY    29  19  66 CALM      30.23F
PITTSBURGH     CLOUDY    29  17  61 N3        30.22F
INDIANA*       CLOUDY    27  19  74 CALM      30.25F
LATROBE        CLOUDY    28  19  69 CALM      30.25S
WASHINGTON CO* NOT AVBL
$$

PAZ004>006-010>012-017>019-024>028-033>037-041-042-045-046-049>053-200700-
CENTRAL PENNSYLVANIA

CITY           SKY/WX    TMP DP  RH WIND       PRES   REMARKS
BRADFORD       CLOUDY    22  18  85 N6        30.14F WCI  14
DUBOIS         MOCLDY    21  17  84 W3        30.16F
CLEARFIELD     CLOUDY    25  18  74 NW6       30.18F
JOHNSTOWN      CLOUDY    22  15  75 N8        30.15F WCI  12
ALTOONA        CLOUDY    26  18  71 N13       30.20F WCI  15
STATE COLLEGE  CLOUDY    26  18  73 NW3       30.20S
WILLIAMSPORT   CLOUDY    30  17  58 NW8       30.22S
SELINSGROVE    CLOUDY    32  20  61 N7        30.22S
FT INDIANTOWN  CLOUDY    32  20  61 VRB5      30.19F
CAPITAL CITY   CLOUDY    30  20  66 W6        30.22S
HARRISBURG     CLOUDY    30  21  69 NW6       30.21S
YORK           CLEAR     25  20  81 W7        30.21F
$$

PAZ038>040-043-044-047-048-054-055-060>062-067>071-200700-
EASTERN PENNSYLVANIA

CITY           SKY/WX    TMP DP  RH WIND       PRES   REMARKS
SCRANTON       CLOUDY    29  19  66 N13       30.17F
MOUNT POCONO   CLOUDY    23  19  85 N10       30.09S WCI  12
ALLENTOWN      CLOUDY    32  21  64 N12       30.18F
QUAKERTOWN*    CLOUDY    32  23  69 N6        30.18S
READING        CLOUDY    33  21  61 N7        30.18F
LANCASTER      CLOUDY    30  21  69 W8        30.19F
COATESVILLE    CLOUDY    32  25  74 NW5       30.18S
POTTSTOWN      CLOUDY    33  21  61 N6        30.19F
BLUE BELL      CLOUDY    34  23  64 CALM      30.18S
DOYLESTOWN     CLOUDY    31  23  72 N7        30.17F
WILLOW GROVE   NOT AVBL
NORTH PHILA    CLOUDY    34  20  56 N3        30.21S
PHILADELPHIA   CLOUDY    34  20  56 W3        30.21F
$$


USA.gov is the U.S. government's official web portal to all federal, state and local government web resources and services.